Location: *
(46.3500°N, 10.9000°E)
Time: 00:20:49
(UTC+00:00)

Vanguard 2 - Pass Details

Date: 26 April 2021
Orbit: 552 x 2938 km, 32.9° (Epoch: 12 May)

Event Time Altitude Azimuth Distance (km) Brightness Sun altitude
Rises 11:50:13 0° 253° (WSW) 6,789 12.6 56.5°
Reaches altitude 10° 11:55:06 10° 249° (WSW) 5,720 12.4 56.2°
Maximum altitude 12:10:51 47° 183° (S) 2,982 12.5 55.2°
Drops below altitude 10° 12:21:59 10° 115° (ESE) 4,128 11.4 54.4°
Sets 12:24:54 0° 109° (ESE) 4,829 11.5 54.1°
